Regional Weather Roundup
Issued by NWS Grand Forks, ND

Home | Current Version | Previous Version | Graphics & Text | Print | Product List | Glossary On
Versions: 1 2 3 4 5 6 7 8 9 10 11 12 13 14 15 16 17 18 19 20 21 22 23 24 25 26 27 28 29 30 31 32 33 34 35 36 37 38 39 40 41 42 43 44 45 46 47 48 49 50
000
ASUS43 KFGF 201110
RWRFGF
PRAIRIE TO PINES  WEATHER ROUNDUP
NATIONAL WEATHER SERVICE EASTERN NORTH DAKOTA/GRAND FORKS ND
600 AM CDT WED AUG 20 2014

 **SATELLITE DATA USED TO AUGMENT SKY COVER AT AUTOMATED STATIONS**
 *****  WEATHER ACROSS EASTERN NORTH DAKOTA  *****

CITY           SKY/WX    TMP DP  RH WIND       PRES   REMARKS
GRAND FORKS    PTCLDY    63  61  93 SE7       29.76S
GRAND FRKS AFB PTCLDY    63  63 100 SE5       29.77S
GRAND FRKS NWS   N/A     52 N/A N/A SE7         N/A
DEVILS LAKE    PTCLDY    68  61  77 SE9       29.74R
FARGO          PTCLDY    65  62  90 SE6       29.76F
WAHPETON ARPT  SUNNY     63  59  88 SE7       29.78S
$$

 ***** WEATHER ACROSS CENTRAL AND WESTERN NORTH DAKOTA  *****

CITY           SKY/WX    TMP DP  RH WIND       PRES   REMARKS
BISMARCK       CLEAR     65  61  87 E9        29.70S
MINOT          CLEAR     63  60  90 CALM      29.66F
JAMESTOWN      CLEAR     64  61  90 SE6       29.74F
MINOT AFB      CLEAR     63  63  99 SE8       29.65F
GARRISON         N/A     65  63  93 SE6       29.68S
WILLISTON      CLOUDY    70  60  70 SE6       29.61F
DICKINSON      PTCLDY    63  59  87 S9        29.66S
HETTINGER      MOCLDY    68  62  81 SE8       29.70S
$$

 *****  OTHER AIRPORT OBSERVATIONS IN OUR AREA  *****

CITY           SKY/WX    TMP DP  RH WIND       PRES   REMARKS
WALHALLA         N/A     63  63 100 SE9         N/A
GRAFTON AIRPOR FAIR      59  59 100 SE6       29.77R
VALLEY CITY AR FAIR      63  63 100 SE5       29.77S
CANDO          CLOUDY    64  64 100 SE6       29.75R
CAVALIER APRT  FAIR      61  59  94 SE3       29.77R
GWINNER        SUNNY     63  63 100 E3        29.77S
ROLLA          CLOUDY    59  59 100 S3        29.76S
 ***** THE ABOVE OBSERVATIONS ARE NON NWS ARE NOT QUALITY
       CONTROLLED AND MAY MIS-REPORT RAIN FOR SNOW...
$$

  *****  WEATHER ACROSS NORTHERN MINNESOTA  *****

CITY           SKY/WX    TMP DP  RH WIND       PRES   REMARKS
FLAG ISLAND    CLEAR     68  63  83 S9        29.82R
WARROAD        CLEAR     63  57  82 CALM      29.83R
ROSEAU         CLEAR     63  57  82 S5        29.82R
HALLOCK        PTCLDY    63  61  94 SE7       29.78R
THF RVR FALLS  CLEAR     61  57  88 SE6       29.81R
BAUDETTE       CLEAR     57  56  96 VRB3      29.84R
WASKISH        CLOUDY    57  57 100 CALM      29.85R
CROOKSTON      CLEAR     61  61 100 SE6       29.79S
$$
  *****  WEATHER ACROSS CENTRAL AND WEST MINNESOTA  *****

CITY           SKY/WX    TMP DP  RH WIND       PRES   REMARKS
FOSSTON        CLEAR     59  55  88 CALM      29.82S
BEMIDJI        CLEAR     57  56  99 CALM      29.85R
PARK RAPIDS    MOCLDY    61  60  97 E5        29.83F
ELBOW LAKE     FAIR      65  62  91 E7        29.79S
WADENA         FOG       57  57 100 CALM      29.82F VSB 1/2
DETROIT LAKES  PTCLDY    64  63  94 SE6       29.82F
MOORHEAD       PTCLDY    64  64 100 SE3       29.78F
FERGUS FALLS   PTCLDY    66  63  88 E5        29.79F
MORRIS MN      PTCLDY    63  61  94 SE6       29.79R FOG
STAPLES        FOG       59  59 100 E3        29.82F VSB 1
$$
  *****  WEATHER ELSEWHERE ACROSS MINNESOTA  *****

CITY           SKY/WX    TMP DP  RH WIND       PRES   REMARKS
DULUTH         CLOUDY    60  58  92 CALM      29.86R
INTRNTL FALLS  FOG       52  52 100 CALM      29.86R VSB 1/2
ELY            CLOUDY    61  57  88 CALM      29.86R
CLOQUET        FOG       61  57  88 CALM      29.87R VSB 1/4
WHEATON        PTCLDY    59  57  94 SE7       29.80R
BRAINERD       FOG       58  57  97 CALM      29.84F VSB 1/4
HIBBING        FOG       52  50  93 CALM      29.87R VSB 1/2
ALEXANDRIA     CLEAR     64  62  93 E8        29.82F
SAINT CLOUD    FOG       63  62  97 E5        29.83S VSB 1/2
MINNEAPOLIS    PTCLDY    66  64  93 NE6       29.81F
$$

  *****  WEATHER ACROSS SOUTH DAKOTA  *****

CITY           SKY/WX    TMP DP  RH WIND       PRES   REMARKS
SIOUX FALLS    LGT RAIN  70  64  81 E7        29.80F
BROOKINGS      NOT AVBL
WATERTOWN      CLOUDY    65  60  84 SE3       29.79S
HURON          CLOUDY    68  64  87 E15       29.72F
SISSETON         N/A     59  59 100 S3        29.78R
ABERDEEN       PTCLDY    61  61 100 SE5       29.75R
MITCHELL       CLOUDY    68  66  93 N12       29.77F
PIERRE         PTCLDY    68  60  75 SE9       29.68F
MOBRIDGE       PTCLDY    64  63  96 E7        29.67F
RAPID CITY     CLOUDY    66  56  70 CALM      29.72R
$$

  *****  SOME WEATHER IN NEARBY STATES *****

CITY           SKY/WX    TMP DP  RH WIND       PRES   REMARKS
GLASGOW MT     MOCLDY    66  53  63 NW9       29.60S
GREAT FALLS MT PTCLDY    57  49  74 CALM      29.79R
CHEYENNE WY    CLOUDY    63  49  60 NW6       29.96S
SCOTTSBLUFF NE CLOUDY    65  59  81 NE5       29.83S
OMAHA NE       CLOUDY    74  67  78 SE9       29.76S
DES MOINES IA  CLOUDY    70  68  93 S7        29.81R THUNDER
DAVENPORT IA   CLEAR     63  61  93 SW5       29.86R
CHICAGO IL     PTCLDY    66  60  81 W7        29.83R
EAU CLAIRE WI  CLEAR     60  60 100 N3        29.84R FOG
LA CROSSE WI   CLEAR     64  61  90 E3        29.81S
$$

  *****  SOME NATIONAL WEATHER *****

CITY           SKY/WX    TMP DP  RH WIND       PRES   REMARKS
LA GUARDIA NY  MOCLDY    72  64  76 CALM      29.97R
RALEIGH NC     FOG       72  70  93 CALM      29.95R VSB 1/4
ATLANTA GA     MOCLDY    73  70  90 W5        30.01R
NEW ORLEANS LA PTCLDY    78  74  87 CALM      30.00R
OKLAHOMA CITY  PTCLDY    74  67  78 S9        29.89R
ALBUQUERQUE NM CLOUDY    68  52  56 W3        30.05S
SALT LAKE CITY CLOUDY    62  58  86 SE14      29.95R
LOS ANGELES CA NOT AVBL
BOISE ID       CLEAR     68  45  43 S7        29.81R
SEATTLE WA     CLOUDY    59  51  75 S7        29.90R
$$

*** WEATHER ACROSS MANITOBA...SASKATCHEWAN AND ONTARIO ***
                ***ONTARIO***

CITY           SKY/WX    TMP DP  RH WIND       PRES   REMARKS
GERALDTON      CLOUDY    57  55  94 NE5       29.86  FOG
THUNDER BAY    CLOUDY    61  61 100 SW3       29.83R
SIOUX LOOKOUT  PTCLDY    50  50 100 CALM      29.87R
TORONTO        CLOUDY    64  59  82 E3        29.86R
BIG TROUT LK   CLEAR     61  55  82 S3        29.89R
PICKLE LAKE    PTCLDY    54  52  94 NE2       29.90
DRYDEN         FOG       57  55  94 NE3       29.87R VSB 3/4
KENORA         PTCLDY    59  57  94 SE5       29.86R
$$
                *** MANITOBA***

CITY           SKY/WX    TMP DP  RH WIND       PRES   REMARKS
BRANDON        FOG       59  59 100 NE7       29.74R VSB 1
DAUPHIN        CLEAR     57  55  94 VRB2      29.70S FOG
ISLAND LAKE    PTCLDY    63  59  88 S6        29.81R
PILOT MOUND      N/A     61  59  94 SE7         N/A
THE PAS        MOCLDY    61  61 100 SE7       29.64S
THOMPSON       CLOUDY    63  63 100 E2        29.69S
WINNIPEG       PTCLDY    63  61  94 SE9       29.78R
LYNN LAKE      FOG       52  52 100 MISG      29.72F VSB 5/8
CHURCHILL      LGT RAIN  46  46 100 E14       29.80F
GILLAM         MOCLDY    59  59 100 CALM      29.75R
$$
                ***SASKATCHEWAN***

CITY           SKY/WX    TMP DP  RH WIND       PRES   REMARKS
ESTEVAN        MOCLDY    61  61 100 E6        29.63S
KINDERSLEY     LGT RAIN  61  57  88 NW10G18   29.68R
LLOYDMINSTER   PTCLDY    55  52  88 NW10      29.70R
PRINCE ALBERT  TSTM      63  61  94 SE5       29.64S
REGINA         MOCLDY    61  55  82 CALM      29.62R
YORKTON        RAIN      63  61  94 N5        29.64F FOG
N. BATTLEFORD  MOCLDY    61  59  94 NW5       29.67R
LA RONGE       CLOUDY    61  59  94 CALM      29.66R
SASKATOON      MOCLDY    59  57  94 VRB2      29.61S
SWIFT CURRENT  CLEAR     55  54  94 W8        29.67R
$$
NOTE: THESE ARE AUTOMATED STATIONS WITH LIMITED QUALITY CONTROL
      "FAIR" INDICATES FEW OR NO CLOUDS BELOW 12,000 FEET WITH NO
      SIGNIFICANT WEATHER AND/OR OBSTRUCTIONS TO VISIBILITY.
      SKY/WX - SKY CONDITION AND SIGNIFICANT WEATHER.
      TMP - AIR TEMPERATURE.    DP   - DEWPOINT TEMPERATURE.
      RH  - RELATIVE HUMIDITY.  PRES - PRESSURE.
      HX  - HEAT INDEX.         WCI  - WIND CHILL INDEX.
$



USA.gov is the U.S. government's official web portal to all federal, state and local government web resources and services.